Regional Weather Roundup
Issued by NWS Newport/Morehead, NC

Current Version | Previous Version | Text Only | Print | Product List | Glossary On
Versions: 1 2 3 4 5 6 7 8 9 10 11 12 13 14 15 16 17 18 19 20 21 22 23 24 25 26 27 28 29 30 31 32 33 34 35 36 37 38 39 40 41 42 43 44 45 46 47 48 49 50
000 ASUS42 KMHX 180213 RWRMHX WEATHER ROUNDUP FOR EASTERN NORTH CAROLINA NATIONAL WEATHER SERVICE NEWPORT/MOREHEAD CITY NC 1000 PM EDT TUE OCT 17 2017 NOTE: "FAIR" INDICATES FEW OR NO CLOUDS BELOW 12,000 FEET WITH NO SIGNIFICANT WEATHER AND/OR OBSTRUCTIONS TO VISIBILITY NCZ015>017-031-032-045>047-102-103-180300- NORTH COAST CITY SKY/WX TMP DP RH WIND PRES REMARKS EDENTON CLEAR 49 45 84 CALM 30.34R ELIZABETH CITY CLEAR 54 47 77 N12 30.33R KITTY HAWK CLEAR 57 44 61 NE5 30.29F MANTEO PTCLDY N/A N/A N/A NE10 30.31S $$ NCZ045>047-081-094-103-104-180300- CENTRAL COAST CITY SKY/WX TMP DP RH WIND PRES REMARKS FRISCO MOCLDY 61 51 70 NE8G17 30.27S $$ NCZ095-097-098-100-101-180300- SOUTHERN COAST CITY SKY/WX TMP DP RH WIND PRES REMARKS BEAUFORT CLOUDY 54 49 83 N9 30.30R CEDAR ISLAND NOT AVBL JACKSONVILLE CLEAR 53 46 77 NE6 30.31R PINEY ISLAND N/A N/A N/A N/A N14 30.29S WILMINGTON CLEAR 51 45 79 NE8 30.30R $$ NCZ011>013-027>030-043-044-078>080-089-090>093-098-180300- COASTAL PLAIN CITY SKY/WX TMP DP RH WIND PRES REMARKS AHOSKIE CLEAR 45 43 92 CALM 30.35R CLINTON CLEAR 50 46 85 CALM 30.33R ELIZABETHTOWN NOT AVBL GOLDSBORO CLEAR 49 43 79 CALM 30.32R GREENVILLE CLEAR 52 43 71 NE5 30.33R HAVELOCK CLOUDY 56 48 74 N10 30.32R KENANSVILLE CLEAR 45 43 93 CALM 30.33R KINSTON CLEAR 45 43 93 CALM 30.34R NEW BERN CLEAR 51 44 77 NE6 30.33R RICHLANDS CLEAR 47 46 97 CALM 30.32R ROCKY MOUNT CLEAR 46 45 96 CALM 30.35R WASHINGTON CLEAR 49 43 79 NE6 30.33R WHITEVILLE CLEAR 52 46 80 CALM 30.30R $$ AMZ130-135-150-152-154-156-158-170-250-252-270-ANZ085-086-088-633-658-670-180300- MARINE OBSERVATIONS STATION/POSITION TIME TEMP WIND PRES WAVE SWELL AIR SEA DIR/SP/G HT/PER HT/PER (UTC) (F) (DEG/KT/KT) (MB) (FT/S) (FT/S) CHESAPEAKE LIGHT NOT AVBL 64 E VA BEACH 0150 61 67 30/ 10/ 14 1026.5 5/ 7 5/ 7 DUCK 0148 60 68 50/ 16/ 19 1026.0 2 E DUCK 0200 70 N/A 5/ 8 2/11 OREGON INLET 0148 30/ 11/ 16 N/A 13E OREGON INLT 0148 71 N/A 6/ 7 5/ 7 HATTERAS CG 0148 62 68 20/ 18/ 21 1024.8 DIAMOND BUOY 0150 65 81 20/ 17/ 23 1023.9 6/ 9 3/ 9 CAPE LOOKOUT 0200 60 10/ 12/ 16 1025.2 BEAUFORT LAB 0148 58 71 10/ 9/ 12 1025.9 30 SE NEW RVR IN 0108 64 40/ 17/ 23 1024.3 30 SE NEW RVR IN NOT AVBL 27 SE WRIGHTSVLE 0108 65 77 60/ 17/ 25 1024.2 5 SE WRIGHTSVLE 0108 64 75 50/ 17/ 33 1024.9 225 S CAPE HAT 0150 75 79 40/ 21/ 29 1019.3 12/ 9 41 SE CHARLESTON 0150 69 80 40/ 21/ 27 1023.1 10/11 7/11 $$

USA.gov is the U.S. government's official web portal to all federal, state and local government web resources and services.